Time,TemperatureF,DewpointF,PressureIn,WindDirection,WindDirectionDegrees,WindSpeedMPH,WindSpeedGustMPH,Humidity,HourlyPrecipIn,Conditions,Clouds,dailyrainin,SoftwareType,DateUTC
2013-01-11 00:03:00,28.0,22.0,-100.00,SW,225,1.0,1.0,79,0.00,,,-99.99,,2013-01-11 05:03:00,
2013-01-11 00:13:00,27.0,22.0,-100.00,SSW,210,0.0,1.0,80,0.00,,,-99.99,,2013-01-11 05:13:00,
2013-01-11 00:22:00,27.0,23.0,-100.00,East,95,0.0,1.0,81,0.00,,,-99.99,,2013-01-11 05:22:00,
2013-01-11 00:33:00,27.0,22.0,-100.00,SSW,210,0.0,1.0,82,0.00,,,-99.99,,2013-01-11 05:33:00,
2013-01-11 00:43:00,26.0,22.0,-100.00,West,270,1.0,1.0,82,0.00,,,-99.99,,2013-01-11 05:43:00,
2013-01-11 00:52:00,26.0,22.0,-100.00,SSW,210,1.0,1.0,83,0.00,,,-99.99,,2013-01-11 05:52:00,
2013-01-11 01:03:00,26.0,22.0,-100.00,SW,225,0.0,1.0,84,0.00,,,-99.99,,2013-01-11 06:03:00,
2013-01-11 01:12:00,26.0,22.0,-100.00,SE,135,1.0,2.0,84,0.00,,,-99.99,,2013-01-11 06:12:00,
2013-01-11 01:22:00,25.0,21.0,-100.00,WNW,285,1.0,2.0,85,0.00,,,-99.99,,2013-01-11 06:22:00,
2013-01-11 01:32:00,26.0,22.0,-100.00,NE,35,1.0,4.0,85,0.00,,,-99.99,,2013-01-11 06:32:00,
2013-01-11 01:42:00,26.0,22.0,-100.00,SSW,195,0.0,2.0,85,0.00,,,-99.99,,2013-01-11 06:42:00,
2013-01-11 01:52:00,25.0,21.0,-100.00,WSW,250,0.0,1.0,85,0.00,,,-99.99,,2013-01-11 06:52:00,
2013-01-11 02:02:00,25.0,22.0,-100.00,NE,45,0.0,2.0,85,0.00,,,-99.99,,2013-01-11 07:02:00,
2013-01-11 02:12:00,25.0,21.0,-100.00,SW,225,1.0,1.0,86,0.00,,,-99.99,,2013-01-11 07:12:00,
2013-01-11 02:22:00,25.0,21.0,-100.00,NNW,345,1.0,2.0,86,0.00,,,-99.99,,2013-01-11 07:22:00,
2013-01-11 02:32:00,24.0,21.0,-100.00,WSW,245,0.0,1.0,86,0.00,,,-99.99,,2013-01-11 07:32:00,
2013-01-11 02:42:00,24.0,21.0,-100.00,SW,215,0.0,1.0,87,0.00,,,-99.99,,2013-01-11 07:42:00,
2013-01-11 02:52:00,23.0,20.0,-100.00,SW,225,1.0,1.0,87,0.00,,,-99.99,,2013-01-11 07:52:00,
2013-01-11 03:02:00,24.0,21.0,-100.00,North,10,1.0,2.0,88,0.00,,,-99.99,,2013-01-11 08:02:00,
2013-01-11 03:12:00,24.0,20.0,-100.00,NNW,330,1.0,1.0,88,0.00,,,-99.99,,2013-01-11 08:12:00,
2013-01-11 03:22:00,23.0,20.0,-100.00,NNW,345,1.0,3.0,88,0.00,,,-99.99,,2013-01-11 08:22:00,
2013-01-11 03:32:00,23.0,20.0,-100.00,NNW,335,1.0,2.0,88,0.00,,,-99.99,,2013-01-11 08:32:00,
2013-01-11 03:42:00,23.0,20.0,-100.00,NNE,25,1.0,2.0,88,0.00,,,-99.99,,2013-01-11 08:42:00,
2013-01-11 03:52:00,23.0,20.0,-100.00,North,5,0.0,2.0,89,0.00,,,-99.99,,2013-01-11 08:52:00,
2013-01-11 04:02:00,23.0,20.0,-100.00,South,180,0.0,1.0,89,0.00,,,-99.99,,2013-01-11 09:02:00,
2013-01-11 04:12:00,23.0,20.0,-100.00,NNW,330,1.0,3.0,89,0.00,,,-99.99,,2013-01-11 09:12:00,
2013-01-11 04:23:00,22.0,19.0,-100.00,SW,225,0.0,2.0,89,0.00,,,-99.99,,2013-01-11 09:23:00,
2013-01-11 04:32:00,22.0,20.0,-100.00,SSW,210,0.0,1.0,89,0.00,,,-99.99,,2013-01-11 09:32:00,
2013-01-11 04:42:00,22.0,20.0,-100.00,NNW,330,1.0,1.0,90,0.00,,,-99.99,,2013-01-11 09:42:00,
2013-01-11 04:52:00,22.0,20.0,-100.00,East,80,0.0,2.0,90,0.00,,,-99.99,,2013-01-11 09:52:00,
2013-01-11 05:02:00,22.0,20.0,-100.00,NNW,335,2.0,4.0,90,0.00,,,-99.99,,2013-01-11 10:02:00,
2013-01-11 05:12:00,22.0,20.0,-100.00,South,170,1.0,4.0,90,0.00,,,-99.99,,2013-01-11 10:12:00,
2013-01-11 05:22:00,22.0,20.0,-100.00,NNW,345,2.0,4.0,90,0.00,,,-99.99,,2013-01-11 10:22:00,
2013-01-11 05:32:00,22.0,20.0,-100.00,NNW,345,1.0,4.0,90,0.00,,,-99.99,,2013-01-11 10:32:00,
2013-01-11 05:42:00,22.0,19.0,-100.00,SSW,205,1.0,3.0,90,0.00,,,-99.99,,2013-01-11 10:42:00,
2013-01-11 05:52:00,22.0,19.0,-100.00,West,280,1.0,1.0,90,0.00,,,-99.99,,2013-01-11 10:52:00,
2013-01-11 06:03:00,22.0,20.0,-100.00,NNW,345,2.0,4.0,91,0.00,,,-99.99,,2013-01-11 11:03:00,
2013-01-11 06:12:00,22.0,20.0,-100.00,NW,325,1.0,3.0,90,0.00,,,-99.99,,2013-01-11 11:12:00,
2013-01-11 06:22:00,23.0,20.0,-100.00,East,100,1.0,6.0,90,0.00,,,-99.99,,2013-01-11 11:22:00,
2013-01-11 06:33:00,23.0,20.0,-100.00,NNW,335,2.0,4.0,90,0.00,,,-99.99,,2013-01-11 11:33:00,
2013-01-11 06:42:00,22.0,20.0,-100.00,NW,320,1.0,4.0,90,0.00,,,-99.99,,2013-01-11 11:42:00,
2013-01-11 06:52:00,23.0,20.0,-100.00,NNE,15,1.0,3.0,90,0.00,,,-99.99,,2013-01-11 11:52:00,
2013-01-11 07:03:00,23.0,21.0,-100.00,North,350,2.0,4.0,90,0.00,,,-99.99,,2013-01-11 12:03:00,
2013-01-11 07:12:00,23.0,20.0,-100.00,NNW,345,1.0,3.0,90,0.00,,,-99.99,,2013-01-11 12:12:00,
2013-01-11 07:22:00,23.0,21.0,-100.00,NNW,345,1.0,3.0,90,0.00,,,-99.99,,2013-01-11 12:22:00,
2013-01-11 07:33:00,23.0,20.0,-100.00,NW,310,1.0,4.0,90,0.00,,,-99.99,,2013-01-11 12:33:00,
2013-01-11 07:42:00,23.0,21.0,-100.00,North,5,1.0,3.0,89,0.00,,,-99.99,,2013-01-11 12:42:00,
2013-01-11 07:52:00,24.0,21.0,-100.00,NNW,340,2.0,4.0,89,0.00,,,-99.99,,2013-01-11 12:52:00,
2013-01-11 08:03:00,24.0,21.0,-100.00,NW,320,2.0,4.0,88,0.00,,,-99.99,,2013-01-11 13:03:00,
2013-01-11 08:13:00,24.0,21.0,-100.00,North,5,1.0,4.0,88,0.00,,,-99.99,,2013-01-11 13:13:00,
2013-01-11 08:22:00,25.0,22.0,-100.00,North,0,1.0,3.0,87,0.00,,,-99.99,,2013-01-11 13:22:00,
2013-01-11 08:33:00,25.0,22.0,-100.00,North,5,1.0,3.0,87,0.00,,,-99.99,,2013-01-11 13:33:00,
2013-01-11 08:42:00,25.0,22.0,-100.00,North,350,2.0,4.0,86,0.00,,,-99.99,,2013-01-11 13:42:00,
2013-01-11 08:52:00,26.0,22.0,-100.00,NNW,345,1.0,4.0,86,0.00,,,-99.99,,2013-01-11 13:52:00,
2013-01-11 09:03:00,27.0,23.0,-100.00,NNW,335,1.0,6.0,84,0.00,,,-99.99,,2013-01-11 14:03:00,
2013-01-11 09:12:00,27.0,23.0,-100.00,ENE,65,1.0,4.0,82,0.00,,,-99.99,,2013-01-11 14:12:00,
2013-01-11 09:23:00,29.0,24.0,-100.00,NE,55,1.0,4.0,80,0.00,,,-99.99,,2013-01-11 14:23:00,
2013-01-11 09:33:00,30.0,24.0,-100.00,North,5,1.0,3.0,76,0.00,,,-99.99,,2013-01-11 14:33:00,
2013-01-11 09:43:00,31.0,24.0,-100.00,NNW,335,2.0,4.0,73,0.00,,,-99.99,,2013-01-11 14:43:00,
2013-01-11 09:53:00,32.0,24.0,-100.00,North,0,2.0,4.0,70,0.00,,,-99.99,,2013-01-11 14:53:00,
2013-01-11 10:03:00,34.0,24.0,-100.00,NNW,340,1.0,5.0,68,0.00,,,-99.99,,2013-01-11 15:03:00,
2013-01-11 10:13:00,35.0,24.0,-100.00,North,10,2.0,4.0,63,0.00,,,-99.99,,2013-01-11 15:13:00,
2013-01-11 10:23:00,36.0,23.0,-100.00,NNE,25,1.0,4.0,60,0.00,,,-99.99,,2013-01-11 15:23:00,
2013-01-11 10:33:00,36.0,23.0,-100.00,ENE,60,1.0,4.0,59,0.00,,,-99.99,,2013-01-11 15:33:00,
2013-01-11 10:43:00,36.0,23.0,-100.00,NE,40,2.0,4.0,58,0.00,,,-99.99,,2013-01-11 15:43:00,
2013-01-11 10:52:00,36.0,22.0,-100.00,NE,35,1.0,3.0,56,0.00,,,-99.99,,2013-01-11 15:52:00,
2013-01-11 11:03:00,36.0,22.0,-100.00,NE,50,2.0,4.0,56,0.00,,,-99.99,,2013-01-11 16:03:00,
2013-01-11 11:12:00,37.0,22.0,-100.00,NE,35,1.0,5.0,55,0.00,,,-99.99,,2013-01-11 16:12:00,
2013-01-11 11:22:00,37.0,23.0,-100.00,East,100,1.0,5.0,55,0.00,,,-99.99,,2013-01-11 16:22:00,
2013-01-11 11:33:00,37.0,23.0,-100.00,South,185,1.0,7.0,56,0.00,,,-99.99,,2013-01-11 16:33:00,
2013-01-11 11:42:00,38.0,23.0,-100.00,ESE,105,2.0,4.0,56,0.00,,,-99.99,,2013-01-11 16:42:00,
2013-01-11 11:52:00,38.0,23.0,-100.00,SSE,160,1.0,2.0,55,0.00,,,-99.99,,2013-01-11 16:52:00,
2013-01-11 12:03:00,38.0,24.0,-100.00,ESE,110,1.0,4.0,56,0.00,,,-99.99,,2013-01-11 17:03:00,
2013-01-11 12:12:00,38.0,24.0,-100.00,East,100,2.0,6.0,56,0.00,,,-99.99,,2013-01-11 17:12:00,
2013-01-11 12:22:00,38.0,24.0,-100.00,South,175,1.0,6.0,55,0.00,,,-99.99,,2013-01-11 17:22:00,
2013-01-11 12:33:00,38.0,24.0,-100.00,South,180,2.0,4.0,57,0.00,,,-99.99,,2013-01-11 17:33:00,
2013-01-11 12:43:00,39.0,26.0,-100.00,SSW,210,1.0,4.0,58,0.00,,,-99.99,,2013-01-11 17:43:00,
2013-01-11 12:53:00,38.0,25.0,-100.00,SE,140,1.0,4.0,59,0.00,,,-99.99,,2013-01-11 17:53:00,
2013-01-11 13:04:00,38.0,26.0,-100.00,SE,145,2.0,4.0,60,0.00,,,-99.99,,2013-01-11 18:04:00,
2013-01-11 13:13:00,38.0,26.0,-100.00,SSE,160,2.0,4.0,61,0.00,,,-99.99,,2013-01-11 18:13:00,
2013-01-11 13:23:00,38.0,26.0,-100.00,SSE,160,2.0,4.0,61,0.00,,,-99.99,,2013-01-11 18:23:00,
2013-01-11 13:33:00,38.0,26.0,-100.00,South,185,1.0,2.0,61,0.00,,,-99.99,,2013-01-11 18:33:00,
2013-01-11 13:43:00,38.0,27.0,-100.00,WSW,240,1.0,5.0,62,0.00,,,-99.99,,2013-01-11 18:43:00,
2013-01-11 13:53:00,38.0,26.0,-100.00,SW,220,2.0,4.0,61,0.00,,,-99.99,,2013-01-11 18:53:00,
2013-01-11 14:03:00,38.0,26.0,-100.00,South,175,1.0,2.0,61,0.00,,,-99.99,,2013-01-11 19:03:00,
2013-01-11 14:12:00,38.0,27.0,-100.00,SSE,150,1.0,2.0,62,0.00,,,-99.99,,2013-01-11 19:12:00,
2013-01-11 14:22:00,38.0,27.0,-100.00,SSW,195,1.0,2.0,62,0.00,,,-99.99,,2013-01-11 19:22:00,
2013-01-11 14:33:00,38.0,27.0,-100.00,SSE,165,0.0,2.0,63,0.00,,,-99.99,,2013-01-11 19:33:00,
2013-01-11 14:43:00,38.0,27.0,-100.00,ESE,110,1.0,4.0,63,0.00,,,-99.99,,2013-01-11 19:43:00,
2013-01-11 14:53:00,38.0,27.0,-100.00,East,90,1.0,2.0,64,0.00,,,-99.99,,2013-01-11 19:53:00,
2013-01-11 15:03:00,38.0,27.0,-100.00,SSE,165,1.0,3.0,63,0.00,,,-99.99,,2013-01-11 20:03:00,
2013-01-11 15:12:00,38.0,27.0,-100.00,WNW,285,0.0,1.0,63,0.00,,,-99.99,,2013-01-11 20:12:00,
2013-01-11 15:22:00,38.0,27.0,-100.00,East,100,1.0,1.0,63,0.00,,,-99.99,,2013-01-11 20:22:00,
2013-01-11 15:33:00,38.0,27.0,-100.00,SE,125,1.0,3.0,64,0.00,,,-99.99,,2013-01-11 20:33:00,
2013-01-11 15:43:00,38.0,27.0,-100.00,ENE,75,1.0,6.0,64,0.00,,,-99.99,,2013-01-11 20:43:00,
2013-01-11 15:52:00,38.0,27.0,-100.00,ESE,105,2.0,4.0,64,0.00,,,-99.99,,2013-01-11 20:52:00,
2013-01-11 16:03:00,37.0,27.0,-100.00,SW,235,1.0,2.0,67,0.00,,,-99.99,,2013-01-11 21:03:00,
2013-01-11 16:12:00,38.0,27.0,-100.00,WSW,255,0.0,3.0,66,0.00,,,-99.99,,2013-01-11 21:12:00,
2013-01-11 16:23:00,37.0,27.0,-100.00,SE,125,0.0,1.0,66,0.00,,,-99.99,,2013-01-11 21:23:00,
2013-01-11 16:33:00,37.0,27.0,-100.00,SW,235,1.0,2.0,67,0.00,,,-99.99,,2013-01-11 21:33:00,
2013-01-11 16:42:00,36.0,27.0,-100.00,NE,40,0.0,3.0,69,0.00,,,-99.99,,2013-01-11 21:42:00,
2013-01-11 16:52:00,37.0,27.0,-100.00,NNW,335,0.0,2.0,69,0.00,,,-99.99,,2013-01-11 21:52:00,
2013-01-11 17:03:00,37.0,27.0,-100.00,South,185,0.0,2.0,68,0.00,,,-99.99,,2013-01-11 22:03:00,
2013-01-11 17:12:00,36.0,27.0,-100.00,West,260,0.0,1.0,70,0.00,,,-99.99,,2013-01-11 22:12:00,
2013-01-11 17:22:00,37.0,28.0,-100.00,West,275,1.0,4.0,71,0.00,,,-99.99,,2013-01-11 22:22:00,
2013-01-11 17:33:00,36.0,27.0,-100.00,NNW,345,1.0,2.0,72,0.00,,,-99.99,,2013-01-11 22:33:00,
2013-01-11 17:42:00,37.0,29.0,-100.00,North,10,2.0,4.0,72,0.00,,,-99.99,,2013-01-11 22:42:00,
2013-01-11 17:52:00,37.0,29.0,-100.00,North,10,2.0,4.0,72,0.00,,,-99.99,,2013-01-11 22:52:00,
2013-01-11 18:02:00,37.0,29.0,-100.00,North,10,2.0,4.0,72,0.00,,,-99.99,,2013-01-11 23:02:00,
2013-01-11 18:13:00,35.0,28.0,-100.00,SE,130,0.0,1.0,74,0.00,,,-99.99,,2013-01-11 23:13:00,
2013-01-11 18:22:00,35.0,29.0,-100.00,West,270,1.0,2.0,76,0.01,,,-99.99,,2013-01-11 23:22:00,
2013-01-11 18:33:00,35.0,29.0,-100.00,NNW,330,1.0,2.0,78,0.01,,,-99.99,,2013-01-11 23:33:00,
2013-01-11 18:43:00,35.0,30.0,-100.00,NNE,15,1.0,2.0,82,0.00,,,-99.99,,2013-01-11 23:43:00,
2013-01-11 18:53:00,35.0,30.0,-100.00,WNW,295,0.0,1.0,83,0.00,,,-99.99,,2013-01-11 23:53:00,
2013-01-11 19:02:00,34.0,30.0,-100.00,NW,325,0.0,1.0,85,0.00,,,-99.99,,2013-01-12 00:02:00,
2013-01-11 19:12:00,35.0,31.0,-100.00,NE,55,1.0,3.0,86,0.01,,,-99.99,,2013-01-12 00:12:00,
2013-01-11 19:23:00,35.0,31.0,-100.00,West,265,1.0,3.0,88,0.00,,,-99.99,,2013-01-12 00:23:00,
2013-01-11 19:33:00,35.0,32.0,-100.00,NW,315,1.0,2.0,89,0.00,,,-99.99,,2013-01-12 00:33:00,
2013-01-11 19:43:00,35.0,32.0,-100.00,NNW,340,1.0,3.0,89,0.00,,,-99.99,,2013-01-12 00:43:00,
2013-01-11 19:52:00,35.0,32.0,-100.00,West,270,1.0,2.0,89,0.00,,,-99.99,,2013-01-12 00:52:00,
2013-01-11 20:03:00,35.0,32.0,-100.00,North,350,1.0,2.0,90,0.01,,,-99.99,,2013-01-12 01:03:00,
2013-01-11 20:12:00,35.0,32.0,-100.00,NW,325,1.0,1.0,90,0.00,,,-99.99,,2013-01-12 01:12:00,
2013-01-11 20:22:00,34.0,32.0,-100.00,WNW,295,1.0,2.0,90,0.03,,,-99.99,,2013-01-12 01:22:00,
2013-01-11 20:33:00,35.0,33.0,-100.00,NE,35,1.0,2.0,91,0.07,,,-99.99,,2013-01-12 01:33:00,
2013-01-11 20:43:00,35.0,33.0,-100.00,NNW,345,1.0,2.0,92,0.01,,,-99.99,,2013-01-12 01:43:00,
2013-01-11 20:52:00,35.0,33.0,-100.00,East,80,3.0,7.0,92,0.00,,,-99.99,,2013-01-12 01:52:00,
2013-01-11 21:02:00,35.0,33.0,-100.00,NNW,345,1.0,7.0,93,0.03,,,-99.99,,2013-01-12 02:02:00,
2013-01-11 21:12:00,35.0,33.0,-100.00,SW,235,0.0,1.0,93,0.01,,,-99.99,,2013-01-12 02:12:00,
2013-01-11 21:22:00,35.0,33.0,-100.00,North,0,1.0,2.0,93,0.01,,,-99.99,,2013-01-12 02:22:00,
2013-01-11 21:33:00,35.0,33.0,-100.00,NNW,345,0.0,2.0,94,0.06,,,-99.99,,2013-01-12 02:33:00,
2013-01-11 21:43:00,35.0,34.0,-100.00,NNE,15,1.0,3.0,94,0.01,,,-99.99,,2013-01-12 02:43:00,
2013-01-11 21:53:00,35.0,34.0,-100.00,East,95,1.0,2.0,94,0.01,,,-99.99,,2013-01-12 02:53:00,
2013-01-11 22:03:00,35.0,34.0,-100.00,NNW,340,1.0,2.0,94,0.01,,,-99.99,,2013-01-12 03:03:00,
2013-01-11 22:12:00,35.0,34.0,-100.00,NNW,335,1.0,4.0,95,0.01,,,-99.99,,2013-01-12 03:12:00,
2013-01-11 22:22:00,35.0,34.0,-100.00,NW,310,0.0,2.0,95,0.00,,,-99.99,,2013-01-12 03:22:00,
2013-01-11 22:33:00,35.0,34.0,-100.00,West,275,0.0,2.0,95,0.00,,,-99.99,,2013-01-12 03:33:00,
2013-01-11 22:43:00,35.0,34.0,-100.00,ENE,75,1.0,2.0,95,0.00,,,-99.99,,2013-01-12 03:43:00,
2013-01-11 22:52:00,35.0,34.0,-100.00,West,265,1.0,2.0,95,0.00,,,-99.99,,2013-01-12 03:52:00,
2013-01-11 23:02:00,36.0,34.0,-100.00,NNE,15,0.0,2.0,95,0.01,,,-99.99,,2013-01-12 04:02:00,
2013-01-11 23:12:00,36.0,35.0,-100.00,North,5,1.0,6.0,95,0.03,,,-99.99,,2013-01-12 04:12:00,
2013-01-11 23:22:00,35.0,34.0,-100.00,NE,35,1.0,3.0,95,0.01,,,-99.99,,2013-01-12 04:22:00,
2013-01-11 23:32:00,35.0,34.0,-100.00,NNW,345,1.0,3.0,96,0.06,,,-99.99,,2013-01-12 04:32:00,
2013-01-11 23:42:00,35.0,34.0,-100.00,NW,315,1.0,2.0,96,0.03,,,-99.99,,2013-01-12 04:42:00,
2013-01-11 23:52:00,35.0,35.0,-100.00,WNW,290,0.0,2.0,96,0.01,,,-99.99,,2013-01-12 04:52:00,